www.pogodaiklimat.ru

Погода и климат >> Архив погоды >> Россия >> Краснодарский край >> Кропоткин


ПОГОДА в Кропоткине

  • Прогноз погоды в Кропоткине
  • Монитор погоды в Кропоткине

АРХИВ ПОГОДЫ в Кропоткине

Время (UTC), дата Ветер
(напр.,м/с)
 
Видим.   Явления Облачность Т
(С)
Тd
(С)
f
(%)
Тe
(С)
Тes
(С)
Комфортность P
(гПа)
Po
(гПа)
Тmin
(С)
Tmax
(С)
R
(мм)
R24
(мм)
S
(см)
03 12.02 В 3 20 км ясно +2.7 +0.1 83 -1 -1 1019.0 1005.8 +2.7
06 12.02 В 3 20 км 8/0
[Ci]
+3.6 +0.2 78 -0 +1 1019.1 1005.9 +2.6
09 12.02 В 3 20 км 10/0
[Ac As Cs]
+7.8 +1.5 64 +5 +8 1017.8 1004.8
12 12.02 В 3 20 км 10/0
[Cc]
+11.9 +0.7 46 +11 +13 1016.3 1003.5
15 12.02 В 3 20 км 10/0
[Cc]
+9.3 +0.5 54 +7 +7 1017.1 1004.2 +12.6
18 12.02 ЮВ 2 20 км ясно +4.7 0.0 72 +2 +2 1018.3 1005.2
21 12.02 ЮВ 2 20 км ясно +2.3 -0.8 80 -1 -1 1018.9 1005.6
00 13.02 ЮВ 2 20 км ясно +1.1 -1.4 83 -2 -2 1019.1 1005.8
03 13.02 ЮВ 3 20 км ясно 0.0 -2.1 86 -5 -5 1019.9 1006.5 0.0
06 13.02 ЮВ 2 20 км 8/0
[Ci]
+1.7 -1.5 79 -2 0 1021.2 1007.9 -0.3
09 13.02 ЮВ 2 20 км 10/0
[Cc]
+9.4 +0.9 55 +8 +13 1021.1 1008.1
12 13.02 СЗ 2 20 км 10/0
[Cc]
+14.7 -0.1 36 +15 +17 1020.6 1007.9
15 13.02 СЗ 2 20 км 10/0
[Ci]
+8.9 +2.7 65 +7 +7 1021.9 1008.9 +15.5
18 13.02 СЗ 3 20 км ясно +4.7 +1.2 78 +1 +1 1023.4 1010.2
21 13.02 СЗ 2 20 км ясно +3.3 +0.5 82 0 0 1024.9 1011.6
00 14.02 СЗ 1 20 км 10/3 600 м
[Cb cap Ac As]
+2.7 0.0 82 +1 +1 1025.0 1011.7
03 14.02 С 3 20 км 10/4 600 м
[Cb cap Ac As]
+2.0 -1.4 78 -2 -2 1025.3 1012.0 +2.0
06 14.02 С 3 20 км 10/3 600 м
[Sc Ac As]
+1.6 -1.9 78 -3 -2 1026.3 1012.9 +1.4
09 14.02 СВ 3 20 км 10/8 600 м
[Cb cap Ac As]
+3.4 -2.5 65 -0 0 1026.1 1012.8
12 14.02 СВ 4 20 км 10/4 600 м
[Cb cap Ac As]
+4.1 -2.9 60 0 +1 1024.6 1011.4
15 14.02 СВ 3 20 км 10/3 600 м
[Sc Ac trans Cc]
+3.1 -3.6 61 -0 -0 1024.5 1011.2 +4.4
18 14.02 СВ 5 20 км 10/4 600 м
[Sc Ac As]
+1.3 -4.9 63 -4 -4 1025.0 1011.6
21 14.02 СВ 5 20 км 10/0
[Ac As]
-0.3 -6.5 63 -6 -6 1024.6 1011.1
00 15.02 СВ 4
{10}
20 км 10/5 600 м
[Cb cap Ac As]
-0.6 -6.1 66 -6 -6 1024.7 1011.2
03 15.02 СВ 4 20 км 10/4 600 м
[Cb cap Ac As]
-1.0 -5.2 73 -6 -6 1024.9 1011.4 -1.0
06 15.02 В 4 20 км 10/6 600 м
[Cb cap Ac As]
-1.0 -4.8 75 -6 -6 1026.2 1012.7 -1.1
09 15.02 В 4 20 км {ливн. осадки} 9/4 600 м
[Sc diur, vesp Ac cuf]
+1.8 -3.8 66 -3 -2 1025.2 1011.8
12 15.02 СВ 4 20 км {ливн. осадки} 8/5 600 м
[Sc Ac As]
+4.6 -3.2 57 +1 +1 1024.3 1011.1
15 15.02 В 2 20 км 9/0
[Ac trans]
+3.2 -4.3 58 +1 +1 1024.4 1011.1 +5.2 0.0
18 15.02 С 2 20 км ясно -0.1 -4.9 70 -3 -3 1024.5 1011.0
21 15.02 С 1 20 км ясно -3.7 -6.5 81 -6 -6 1023.1 1009.5
00 16.02 СЗ 2 20 км ясно -5.1 -7.9 81 -9 -9 1022.6 1008.9
03 16.02 З 1 20 км ясно -6.6 -8.9 84 -9 -9 1022.4 1008.6 -6.6
06 16.02 ЮЗ 1 20 км 10/0
[Ac cast Cc]
-2.0 -6.7 70 -4 -2 1022.4 1008.8 -6.7
09 16.02 З 3 20 км 10/0
[Ac cast Cs]
+1.7 -6.3 55 -2 +2 1022.0 1008.7
12 16.02 З 3 20 км 10/0
[Cs]
+1.8 -2.9 71 -2 -0 1021.0 1007.7
15 16.02 З 3 20 км 10/0
[Ac As]
+1.4 -1.9 79 -3 -3 1021.1 1007.8 +3.0
18 16.02 З 2 20 км 10/10 600 м
[Cb cap]
+1.4 -0.7 86 -2 -2 1022.0 1008.6
21 16.02 З 2 10 км слаб. ливневой дождь 10/10 300 м
[Cb cap]
+1.1 -0.3 90 -2 -2 1021.7 1008.3
00 17.02 З 2 4000 м слаб. ливневой дождь 10/10 300 м
[Cb cap]
+1.3 +0.1 92 -2 -2 1021.2 1007.8
03 17.02 З 2 10 км {ливн. осадки} 10/10 600 м
[Cb cap]
+1.5 +0.2 91 -2 -2 1021.1 1007.7 +1.0 0.9
06 17.02 З 2 4000 м слаб. ливневой дождь 10/10 300 м
[Cb cap]
+2.1 +0.8 91 -1 -1 1021.1 1007.8
09 17.02 З 4
{11}
4000 м в посл. час ливневой дождь 10/10 600 м
[Cb cap]
+3.0 +1.1 87 -2 -2 1020.0 1006.7
12 17.02 З 5-10
{13}
10 км {ливн. осадки} 10/10 600 м
[Cb cap]
+4.9 +2.4 84 0 0 1017.4 1004.3
15 17.02 З 4-10
{13}
20 км 3/1 600 м
[Sc diur, vesp Ac cast]
+6.7 +1.2 68 +3 +3 1015.4 1002.4 +7.1 0.5
18 17.02 З 5-11
{14}
20 км 8/0
[Ac cast Cc]
+5.9 +1.8 75 +2 +2 1014.1 1001.1
21 17.02 З 7-14
{15}
20 км 9/6 600 м
[Cb cap Ac As]
+6.8 +2.2 72 +2 +2 1012.9 1000.0
00 18.02 З 5-13
{17}
20 км 10/10 600 м
[Cb cap]
+6.8 +2.4 74 +3 +3 1011.9 998.9
03 18.02 З 4-10
{16}
20 км в посл. час ливневой дождь 10/10 600 м
[Cb cap]
+6.3 +3.2 81 +3 +3 1011.2 998.2 +5.7 0.0
06 18.02 З 5-11
{12}
10 км {ливн. осадки} 10/10 600 м
[Cb cap]
+4.9 +1.3 77 0 0 1012.8 999.8 +4.6
09 18.02 СЗ 5-11
{13}
20 км 8/8 600 м
[Sc]
+7.3 -1.0 56 +4 +5 1014.3 1001.3
12 18.02 З 4-10
{12}
20 км 10/8 600 м
[Sc Cc]
+7.1 -5.1 42 +4 +5 1014.1 1001.1
15 18.02 СЗ 3
{10}
20 км 10/0
[Cs]
+3.1 -7.3 46 -0 -0 1016.3 1003.1 +8.5 0.0
18 18.02 З 1 20 км ясно -1.1 -7.6 61 -3 -3 1019.3 1005.9
21 18.02 З 1 20 км ясно -3.3 -7.9 70 -5 -5 1021.0 1007.5
00 19.02 СЗ 2 20 км ясно -5.0 -8.4 77 -9 -9 1022.5 1008.8

 

Местоположение метеостанции Кропоткин (Краснодарский край, Россия): широта 45.43 долгота 40.57 высота над уровнем моря 106 м.

В архиве по умолчанию представлена погода в Кропоткине за последнюю неделю. Архивные данные за месяц целиком и за предыдущие месяцы, начиная с января 2011 года, Вы можете получить, выбрав интересующий диапазон дат из раскрывающегося списка и нажав кнопку "Ввод!".


*Определитесь, кто Вы:
робот инопланетянин человек

Внимание! Время в таблицах - всемирное. Для получения местного времени необходимо прибавить поправку, которая равна 3 ч.

Смотрите также архив погоды в соседних городах и на ближайших метеорологических станциях:

Погода в Новоалександровске (Ставропольский край, Россия) (50 км)
Погода в Тихорецке (Краснодарский край, Россия) (60 км)
Погода в Дондуковской (Адыгея, Россия) (66 км)
Погода в Армавире (Краснодарский край, Россия) (66 км)
Погода в Усть-Лабинске (Краснодарский край, Россия) (69 км)
Погода в Белой Глине (Краснодарский край, Россия) (76 км)
Погода в Красногвардейском (Ставропольский край, Россия) (84 км)
Погода в Кореновске (Краснодарский край, Россия) (85 км)
Погода в Лабинске (Краснодарский край, Россия) (86 км)
Погода в Даховской (Адыгея, Россия) (86 км)

Пояснения к столбцам:

Ветер - указаны скорость ветра в м/с - средняя за 10 мин, порывы в срок и между сроками (в фигурных скобках) и направление, откуда дует ветер: С - северный, СВ - северо-восточный, В - восточный, ЮВ - юго-восточный, Ю - южный, ЮЗ - юго-западный, З - западный, СЗ - северо-западный.
Видимость - горизонтальная дальность видимости в метрах или километрах. При видимости от 1 до 10 км при отсутствии осадков обычно наблюдается дымка, при ухудшении видимости до 1 км и менее - туман. В сухую погоду видимость может ухудшаться дымом, пылью или мглою.
Явления - указаны атмосферные явления, наблюдавшиеся в срок или в последний час перед сроком; фигурными скобками обозначены явления, наблюдавшиеся между сроками (за 1-3 часа до срока); квадратными скобками обозначены град или гололедные отложения с указанием их диаметра в мм.
Облачность - указаны через наклонную черту общая и нижняя облачность в баллах и высота нижней границы облаков в метрах; квадратными скобками обозначены формы облаков: Ci - перистые, Cs - перисто-слоистые, Cc - перисто-кучевые, Ac - высококучевые, As - высокослоистые, Sc - слоисто-кучевые, Ns - слоисто-дождевые, Cu - кучевые, Cb - кучево-дождевые. Подробнее классификацию облаков см. в Атласе облаков (PDF).
T - Температура воздуха - температура, измеренная на высоте 2 м над землей.
Td - Температура точки росы - температура, при понижении до которой содержащийся в воздухе водяной пар достигнет насыщения.
f - Относительная влажность воздуха - влажноcть воздуха, измеренная на высоте 2 м над землей.
Te - Эффективная температура - температура, которую ощущает одетый по сезону человек в тени. Характеристика душности погоды. При расчете учитывается влияние влажности воздуха и скорости ветра на теплоощущения человека.
Tes - Эффективная температура на солнце - температура, которую ощущает человек, с поправкой на солнечный нагрев. Характеристика знойности погоды. Зависит от высоты солнца над горизонтом, облачности и скорости ветра. Ночью, в пасмурную погоду, а также при ветре 12 м/с и более поправка равна нулю.
P - Атмосферное давление - приведенное к уровню моря атмосферное давление.
Po - Атмосферное давление - измеренное на уровне метеостанции атмосферное давление.
Tmin - Минимальная температура - минимум температуры воздуха на высоте 2 м над землей.
Tmax - Максимальная температура - максимум температуры воздуха на высоте 2 м над землей.
R - Количество осадков - Количество выпавших осадков за период времени, мм. При наведении курсора мыши на число - период времени, за который выпало указанное количество осадков.
R24 - Количество осадков - Количество выпавших осадков за 24 часа, мм.
S - Снежный покров - Высота снежного покрова, см. При наведении курсора мыши на число - состояние снежного покрова и степень покрытия местности в баллах.